Weather History for Kansas City International, MO

Change the Weather History Date:

Wednesday, February 6, 2013

  Actual Average Record
Temperature  
Mean Temperature 47 °F 31 °F  
Max Temperature 61 °F 41 °F 70 °F (1904)
Min Temperature 32 °F 21 °F -19 °F (1982)
Degree Days  
Heating Degree Days 18 34  
Month to date heating degree days 185 208  
Since 1 July heating degree days 3012 3372  
Cooling Degree Days 0 0  
Month to date cooling degree days 0 0  
Year to date cooling degree days 0 0  
Moisture  
Dew Point 32 °F    
Average Humidity 55    
Maximum Humidity 75    
Minimum Humidity 35    
Precipitation  
Precipitation 0.00 in 0.04 in 2.04 in (1928)
Month to date precipitation 0.00 0.27  
Year to date precipitation 1.03 1.34  
Snow  
Snow 0.00 in 0.20 in 2.30 in (1933)
Month to date snowfall 0.0 1.2  
Since 1 July snowfall 4.7 12.0  
Snow Depth 0.00 in    
Sea Level Pressure  
Sea Level Pressure 29.99 in    
Wind  
Wind Speed 13 mph (SSE)    
Max Wind Speed 21 mph    
Max Gust Speed 25 mph    
Visibility 10 miles    
Events      
T = Trace of Precipitation, MM = Missing Value Source: NWS Daily Summary

Daily Weather History Graph

Daily Weather History Graph

Search for Another Location

Airport:

Trip Planner

Search our weather history database for the weather conditions in past years. The results will help you decide how hot, cold, wet, or windy it might be!

Date:

Astronomy

Feb. 06, 2013 Rise Set
Actual Time 7:20 AM CST 5:45 PM CST
Civil Twilight 6:52 AM CST 6:13 PM CST
Nautical Twilight 6:21 AM CST 6:45 PM CST
Astronomical Twilight 5:49 AM CST 7:16 PM CST
Moon 4:04 AM CST (2/6) 2:05 PM CST (2/6)
Length of Visible Light 11h 20m
Length of Day
10h 25m
Waning Crescent, 17% of the Moon is Illuminated
Feb 6
Waning Crescent
Feb 10
New
Feb 17
First Quarter
Feb 25
Full
Mar 4
Last Quarter

Hourly Weather History & Observations

Time (CST) Temp. Windchill Dew Point Humidity Pressure Visibility Wind Dir Wind Speed Gust Speed Precip Events Conditions
12:53 AM 39.0 °F 33.4 °F 27.0 °F 62% 30.10 in 10.0 mi ESE 8.1 mph - N/A   Clear
1:53 AM 34.0 °F 28.0 °F 25.0 °F 70% 30.10 in 10.0 mi SSE 6.9 mph - N/A   Clear
2:53 AM 33.1 °F 26.1 °F 25.0 °F 72% 30.09 in 10.0 mi SE 8.1 mph - N/A   Clear
3:53 AM 34.0 °F 26.6 °F 26.1 °F 73% 30.09 in 10.0 mi SSE 9.2 mph - N/A   Clear
4:53 AM 35.1 °F 26.4 °F 27.0 °F 72% 30.09 in 10.0 mi SSE 12.7 mph - N/A   Clear
5:53 AM 34.0 °F 25.0 °F 27.0 °F 75% 30.09 in 10.0 mi SE 12.7 mph - N/A   Clear
6:53 AM 35.1 °F 25.9 °F 27.0 °F 72% 30.08 in 10.0 mi SE 13.8 mph - N/A   Scattered Clouds
7:53 AM 36.0 °F 27.1 °F 27.0 °F 70% 30.09 in 10.0 mi SSE 13.8 mph - N/A   Partly Cloudy
8:53 AM 41.0 °F 33.9 °F 28.0 °F 60% 30.09 in 10.0 mi South 12.7 mph - N/A   Partly Cloudy
9:53 AM 46.0 °F 39.0 °F 27.0 °F 47% 30.08 in 10.0 mi SSE 17.3 mph - N/A   Partly Cloudy
10:53 AM 51.1 °F - 27.0 °F 39% 30.06 in 10.0 mi SSE 17.3 mph - N/A   Partly Cloudy
11:53 AM 55.0 °F - 28.9 °F 37% 30.03 in 10.0 mi SSE 17.3 mph - N/A   Scattered Clouds
12:53 PM 57.0 °F - 30.0 °F 36% 29.99 in 10.0 mi SSE 18.4 mph - N/A   Partly Cloudy
1:53 PM 60.1 °F - 33.1 °F 36% 29.95 in 10.0 mi SSE 12.7 mph 23.0 mph N/A   Partly Cloudy
2:53 PM 60.1 °F - 34.0 °F 38% 29.92 in 10.0 mi South 16.1 mph - N/A   Mostly Cloudy
3:53 PM 60.1 °F - 37.0 °F 42% 29.91 in 10.0 mi SSE 13.8 mph 21.9 mph N/A   Mostly Cloudy
4:53 PM 59.0 °F - 37.9 °F 46% 29.88 in 10.0 mi SSE 13.8 mph - N/A   Mostly Cloudy
5:53 PM 55.0 °F - 37.9 °F 53% 29.89 in 10.0 mi SSE 11.5 mph - N/A   Mostly Cloudy
6:53 PM 53.1 °F - 37.9 °F 57% 29.88 in 10.0 mi SE 15.0 mph - N/A   Scattered Clouds
7:53 PM 53.1 °F - 37.0 °F 55% 29.89 in 10.0 mi SSE 15.0 mph 21.9 mph N/A   Mostly Cloudy
8:53 PM 54.0 °F - 36.0 °F 51% 29.90 in 10.0 mi SSE 17.3 mph - N/A   Overcast
9:53 PM 54.0 °F - 36.0 °F 51% 29.91 in 10.0 mi South 12.7 mph - N/A   Overcast
10:53 PM 53.1 °F - 36.0 °F 52% 29.91 in 10.0 mi South 12.7 mph - N/A   Overcast
11:53 PM 52.0 °F - 37.0 °F 57% 29.90 in 10.0 mi South 12.7 mph - N/A   Overcast